OBJECT P, 68993

Orbit data source: Space-Track

You're viewing an Uncataloged Satellite

Recently launched and/or uncataloged satellites may have evolving metadata. Metadata may include but not limited to: Owner, Maufacturer, Bus, Motor, and Mission.

OBJECT P, 68993 is a satellite in SSO that was launched on Sun, 03 May 2026 UTC launched from the Air Force Western Test Range (AFWTR). Unknown objects in Earth's orbit typically refer to objects detected orbiting the Earth but have not yet been identified or cataloged. These objects could be anything from previously untracked satellites, spent rocket stages, debris from satellite collisions, or even natural meteoroids temporarily captured by Earth's gravity.

Loading next visibility...
Identifier
68993, 2026-100P
Orbit
SSO
Country
Flag of TBDTBD
Related business
None
Manufacturer
Unknown
Mission
Operational spacecraft
Bus & Motor
Unknown
Mass
Unknown
Launch date (UTC)
2026-05-03 (1 week ago)
Launch vehicle
Unknown
Launch site
Air Force Western Test Range (AFWTR)
Object type
Unknown
Shape & HBR
Unknown
Radar Cross Section
RCS unknown

Expand to show TLE details & history
Last TLE update: 7 hours ago

TLE from 7 hours ago
0 OBJECT P
1 68993U 26100P   26130.17568009  .00001046  00000-0  11015-3 0  9994
2 68993  97.7406  28.3347 0001299 259.5531 100.5541 14.91448651  1031
Epoch: 2026-05-10T04:12Z
TLE epoch observation values (Epoch: 2026-05-10T04:12:58.759Z)
Latitude
-0.00007°
Longitude
97.10735°
Altitude
596.626 km
Speed
7.561 km/s
True Right ascension
01h 53m 20s
True Declination
0° 00' 00"
Sunlit
Object was in daylight at epoch
Visualization orbit readout
Latitude
Unknown
Longitude
Unknown
Altitude
Unknown
Speed
Unknown
Apparent Right ascension
Unknown
Apparent Declination
Unknown
Sunlit
N/A
Visualization observer readout
Local Sidereal Time
18:56:05
Azimuth
Unknown
Elevation
Unknown
Doppler factor
Unknown
Orbital elements
Apogee altitude
591.341 km
Perigee altitude
589.531 km
Semi-major axis
6,968.573 km
Eccentricity
0.00013
Inclination
97.7406°
RAAN
28.3347°
Arg. of periapsis
259.5531°
True anomaly
100.56873°
Mean anomaly
100.5541°
Eccentric anomaly
100.56142°
Mean motion
3.73102 °/min
Orbital period
96.49 mins
BSTAR
0.00011015
Loading maneuver chart data...
Computing Atmospheric mass density...
Loading historical data...
Loading historical data...
Loading historical data...
Loading historical data...
Loading historical data...
Loading historical data...
Loading historical data...

Documentation

Showing up to 5 results
|